Location: B?dimalle
(17.1788°N, 80.5377°E)
Time: 12:53:04
(UTC+00:00)

Vanguard 1 Rocket - All Passes

Search period start: 09 November 2024 00:00
Search period end: 19 November 2024 00:00
Orbit: 651 x 4217 km, 34.3° (Epoch: 08 November)

Date Brightness Start Highest point End Pass type
(mag) Time Alt. Az. Time Alt. Az. Time Alt. Az.
09 Nov - 01:00:04 10° SSE 01:05:04 11° SE 01:10:16 10° SE daylight
09 Nov - 03:16:16 10° SSW 03:39:15 42° SE 03:59:27 10° ENE daylight
09 Nov - 05:45:34 10° SW 06:12:09 89° SE 06:29:03 10° ENE daylight
09 Nov - 08:23:02 10° W 08:43:34 47° NNW 08:54:45 10° NE daylight
09 Nov - 11:03:00 10° WNW 11:13:45 29° N 11:20:09 10° NE daylight
09 Nov - 13:34:34 10° NW 13:41:41 47° NNE 13:46:17 10° E visible
09 Nov - 16:02:54 10° W 16:06:18 19° SW 16:09:30 10° S night (unlit)
10 Nov - 02:04:03 10° S 02:22:45 28° SE 02:41:44 10° E daylight
10 Nov - 04:29:48 10° SW 04:55:55 69° SE 05:15:34 10° ENE daylight
10 Nov - 07:03:41 10° WSW 07:28:20 63° NNW 07:42:32 10° NE daylight
10 Nov - 09:44:19 10° WNW 09:59:28 34° NNW 10:07:59 10° NE daylight
10 Nov - 12:20:05 10° NW 12:28:49 34° NNE 12:34:05 10° ENE visible
10 Nov - 14:48:56 10° WNW 14:54:40 53° SW 14:58:57 10° SE visible
11 Nov - 00:54:48 10° SSE 01:06:14 15° SE 01:18:43 10° ESE daylight
11 Nov - 03:15:37 10° SSW 03:39:26 51° SE 04:00:49 10° ENE daylight
11 Nov - 05:45:49 10° WSW 06:12:28 81° NNW 06:29:49 10° NE daylight
11 Nov - 08:24:20 10° W 08:44:33 44° NNW 08:55:47 10° NE daylight
11 Nov - 11:03:52 10° WNW 11:15:12 32° N 11:21:44 10° ENE daylight
11 Nov - 13:35:06 10° NW 13:42:46 69° NNE 13:47:31 10° ESE visible
11 Nov - 16:05:48 10° WSW 16:07:01 11° SW 16:08:12 10° SSW night (unlit)
12 Nov - 02:03:00 10° SSW 02:23:04 35° SE 02:43:58 10° E daylight
12 Nov - 04:29:41 10° SW 04:56:04 79° SE 05:16:23 10° ENE daylight
12 Nov - 07:04:36 10° W 07:29:00 56° NNW 07:43:23 10° NE daylight
12 Nov - 09:45:34 10° WNW 10:00:49 35° N 10:09:22 10° ENE daylight
12 Nov - 12:20:32 10° NW 12:30:07 43° NNE 12:35:35 10° E visible
12 Nov - 14:50:02 10° WNW 14:55:23 33° SW 14:59:25 10° SSE visible
13 Nov - 00:52:29 10° S 01:06:56 21° SE 01:23:21 10° E daylight
13 Nov - 03:15:13 10° SW 03:39:29 60° SE 04:01:52 10° ENE daylight
13 Nov - 05:46:18 10° WSW 06:12:51 73° NNW 06:30:34 10° NE daylight
13 Nov - 08:25:42 10° W 08:45:42 41° NNW 08:56:56 10° NE daylight
13 Nov - 11:04:32 10° NW 11:16:37 36° N 11:23:19 10° ENE daylight
13 Nov - 13:35:42 10° WNW 13:43:41 81° SW 13:48:32 10° SE visible
14 Nov - 02:02:17 10° SSW 02:23:09 42° SE 02:45:37 10° ENE daylight
14 Nov - 04:29:49 10° SW 04:56:12 89° SE 05:17:06 10° ENE daylight
14 Nov - 07:05:44 10° W 07:29:50 52° NNW 07:44:19 10° NE daylight
14 Nov - 09:46:37 10° WNW 10:02:14 36° N 10:10:51 10° ENE daylight
14 Nov - 12:20:56 10° NW 12:31:17 58° NNE 12:36:56 10° ESE visible
14 Nov - 14:51:33 10° W 14:55:59 21° SW 14:59:28 10° S visible
15 Nov - 00:51:04 10° S 01:07:18 27° SE 01:26:29 10° E daylight
15 Nov - 03:15:04 10° SW 03:39:27 69° SE 04:02:41 10° ENE daylight
15 Nov - 05:47:02 10° WSW 06:13:20 65° NNW 06:31:19 10° NE daylight
15 Nov - 08:27:01 10° WNW 08:46:57 40° N 08:58:13 10° ENE daylight
15 Nov - 11:05:01 10° NW 11:17:57 43° NNE 11:24:51 10° E daylight
15 Nov - 13:36:26 10° WNW 13:44:26 54° SW 13:49:18 10° SE visible
15 Nov - 23:43:37 10° SSE 23:51:44 13° SE 00:01:02 10° ESE visible
16 Nov - 02:01:50 10° SSW 02:23:05 50° SE 02:46:50 10° ENE daylight
16 Nov - 04:30:11 10° WSW 04:56:23 82° NNW 05:17:45 10° ENE daylight
16 Nov - 07:06:59 10° W 07:30:49 48° NNW 07:45:20 10° NE daylight
16 Nov - 09:47:27 10° WNW 10:03:38 40° N 10:12:22 10° ENE daylight
16 Nov - 12:21:20 10° WNW 12:32:18 78° NNE 12:38:06 10° ESE visible
16 Nov - 14:53:56 10° WSW 14:56:28 13° SW 14:58:39 10° SSW visible
17 Nov - 00:50:10 10° SSW 01:07:21 33° SE 01:28:40 10° E daylight
17 Nov - 03:15:07 10° SW 03:39:25 79° SE 04:03:21 10° ENE daylight
17 Nov - 05:47:59 10° W 06:13:58 59° NNW 06:32:07 10° NE daylight
17 Nov - 08:28:14 10° WNW 08:48:18 41° N 08:59:35 10° ENE daylight
17 Nov - 11:05:23 10° NW 11:19:11 53° NNE 11:26:16 10° E daylight
17 Nov - 13:37:23 10° WNW 13:45:00 37° SW 13:49:47 10° SSE visible
17 Nov - 23:40:49 10° S 23:52:13 18° SE 00:06:21 10° E visible
18 Nov - 02:01:38 10° SW 02:22:54 59° SE 02:47:43 10° ENE daylight
18 Nov - 04:30:47 10° WSW 04:56:42 73° NNW 05:18:24 10° NE daylight
18 Nov - 07:08:19 10° W 07:31:57 46° NNW 07:46:29 10° ENE daylight
18 Nov - 09:48:05 10° WNW 10:05:00 45° N 10:13:53 10° E daylight
18 Nov - 12:21:47 10° WNW 12:33:07 79° SW 12:39:03 10° SE visible
